TimeEST,TemperatureF,Dew PointF,Humidity,Sea Level PressureIn,VisibilityMPH,Wind Direction,Wind SpeedMPH,Gust SpeedMPH,PrecipitationIn,Events,Conditions,WindDirDegrees,DateUTC
12:51 AM,33.1,23.0,66,30.03,10.0,NW,3.5,-,N/A,,Clear,320,2012-11-08 05:51:00
1:51 AM,30.9,21.9,69,30.04,10.0,Calm,Calm,-,N/A,,Clear,0,2012-11-08 06:51:00
2:51 AM,30.0,21.9,72,30.05,10.0,Calm,Calm,-,N/A,,Clear,0,2012-11-08 07:51:00
3:51 AM,28.0,21.0,75,30.07,10.0,Calm,Calm,-,N/A,,Clear,0,2012-11-08 08:51:00
4:51 AM,27.0,21.0,78,30.10,10.0,WNW,3.5,-,N/A,,Clear,290,2012-11-08 09:51:00
5:51 AM,26.1,21.0,81,30.13,10.0,West,3.5,-,N/A,,Clear,270,2012-11-08 10:51:00
6:51 AM,25.0,21.0,85,30.15,10.0,Calm,Calm,-,N/A,,Clear,0,2012-11-08 11:51:00
7:51 AM,28.9,24.1,82,30.17,10.0,West,3.5,-,N/A,,Clear,260,2012-11-08 12:51:00
8:51 AM,32.0,26.1,79,30.19,4.0,Variable,3.5,-,N/A,,Haze,0,2012-11-08 13:51:00
9:51 AM,36.0,25.0,64,30.20,10.0,WNW,6.9,-,N/A,,Clear,290,2012-11-08 14:51:00
10:51 AM,39.9,23.0,51,30.20,10.0,NNW,10.4,-,N/A,,Clear,330,2012-11-08 15:51:00
11:51 AM,42.1,23.0,47,30.19,10.0,NW,10.4,16.1,N/A,,Clear,310,2012-11-08 16:51:00
12:51 PM,44.1,21.9,42,30.17,10.0,WNW,10.4,-,N/A,,Clear,300,2012-11-08 17:51:00
1:51 PM,45.0,19.9,37,30.17,10.0,NNW,10.4,-,N/A,,Clear,330,2012-11-08 18:51:00
2:51 PM,46.0,21.0,37,30.16,10.0,NW,11.5,-,N/A,,Clear,320,2012-11-08 19:51:00
3:51 PM,45.0,19.0,36,30.17,10.0,WNW,9.2,-,N/A,,Clear,300,2012-11-08 20:51:00
4:51 PM,43.0,19.9,40,30.18,10.0,NW,9.2,-,N/A,,Clear,320,2012-11-08 21:51:00
5:51 PM,39.0,21.0,49,30.21,10.0,North,4.6,-,N/A,,Clear,350,2012-11-08 22:51:00
6:51 PM,37.0,21.9,54,30.23,10.0,NNW,4.6,-,N/A,,Clear,340,2012-11-08 23:51:00
7:51 PM,36.0,21.9,57,30.23,10.0,Calm,Calm,-,N/A,,Clear,0,2012-11-09 00:51:00
8:51 PM,34.0,21.0,59,30.23,10.0,Calm,Calm,-,N/A,,Clear,0,2012-11-09 01:51:00
9:51 PM,30.9,21.9,69,30.24,10.0,Calm,Calm,-,N/A,,Clear,0,2012-11-09 02:51:00
10:51 PM,30.9,21.9,69,30.23,10.0,Calm,Calm,-,N/A,,Clear,0,2012-11-09 03:51:00
11:51 PM,28.0,21.9,78,30.23,10.0,WSW,3.5,-,N/A,,Clear,240,2012-11-09 04:51:00